Hourly Weather Roundup
Issued by NWS Central Illinois

Home | Current Version | Previous Version | Text Only | Print | Product List | Glossary On
Versions: 1 2 3 4 5 6 7 8 9 10 11 12 13 14 15 16 17 18 19 20 21 22 23 24 25 26 27 28 29 30 31 32 33 34 35 36 37 38 39 40 41 42 43 44 45 46 47 48 49 50
000
NZUS43 KILX 212210
HWRILX

Area Weather Roundup
National Weather Service Lincoln IL
500 PM CDT THU SEP 21 2017

NOTE:  "FAIR" indicates few or no clouds below 12,000 feet, with
       no sigificant weather and/or obstructions to visibility.


CITY           SKY/WX    TMP DP  RH WIND       PRES   REMARKS
Bloomington    CLOUDY    88  71  57 SE10      30.00F HX  94
Champaign      CLOUDY    92  67  43 S9        30.00S HX  95
Danville       MOSUNNY   88  72  58 E5        29.98S HX  94
Decatur        MOSUNNY   92  66  42 SW12      29.98S HX  94
Effingham      SUNNY     94  66  39 SE7       30.00S HX  97
Flora          SUNNY     95  65  36 SW8       29.99S HX  97
Galesburg      CLOUDY    83  70  64 S8        29.98S HX  86
Jacksonville   CLOUDY    86  70  58 SE9       29.97F HX  90
Lacon          CLOUDY    89  72  56 SE5       29.96F HX  95
Lawrenceville  SUNNY     93  67  42 S8        30.00S HX  96
Litchfield     CLOUDY    87  70  57 S6        29.98F HX  91
$$


CITY           SKY/WX    TMP DP  RH WIND       PRES   REMARKS
Lincoln        CLOUDY    92  70  49 S9        29.97S HX  98
Macomb         CLOUDY    83  70  64 S5        29.99S HX  87
Mattoon        CLOUDY    90  68  48 S6        29.99S HX  94
Mt Carmel AP   SUNNY     92  65  40 S8        30.00S HX  94
Olney-Noble AP SUNNY     92  59  32 SE8       30.00S HX  91
Paris AP       MOSUNNY   93  68  43 S9        30.01S HX  97
Peoria         CLOUDY    90  70  51 SW8       29.96F HX  95
Pontiac        CLOUDY    91  72  53 S7        29.99S HX  97
Rantoul        CLOUDY    92  71  49 SW6       29.99S HX  99
Robinson       SUNNY     91  67  44 S7        30.00F HX  95
Springfield    CLOUDY    90  70  51 S7        29.98R HX  95
Taylorville    MOSUNNY   88  67  49 S7        29.99R HX  91
$$

...REGIONAL REPORTS...


CITY           SKY/WX    TMP DP  RH WIND       PRES   REMARKS
Chicago O`Hare PTSUNNY   93  63  36 S10       29.97S HX  94
Kankakee       MOSUNNY   87  71  57 S3        30.00S HX  93
Moline         CLOUDY    85  69  58 S3        29.95S HX  89
Mount Sterling CLOUDY    84  72  66 SE7       29.96F HX  90
Mount Vernon     N/A     89  69  51 SW8       29.99F HX  93
Pittsfield     CLOUDY    87  72  61 SE9       29.97S HX  93
Quincy         CLOUDY    87  71  58 SE14      29.94F HX  93
Rockford       PTSUNNY   87  65  47 S14       29.98S HX  89
$$


CITY           SKY/WX    TMP DP  RH WIND       PRES   REMARKS
Burlington     PTSUNNY   85  71  63 SE14G21   29.94F HX  90
Cedar Rapids   SUNNY     87  67  51 S14G22    29.91R HX  90
Des Moines     MOSUNNY   89  71  55 S18G30    29.81F HX  95
Kirksville     SUNNY     90  67  46 S14G24    29.91S HX  93
Ottumwa        SUNNY     88  71  57 SE16G22   29.88F HX  94
St Louis       CLOUDY    89  69  51 SE15      29.97F HX  93
$$


CITY           SKY/WX    TMP DP  RH WIND       PRES   REMARKS
Terre Haute    MOSUNNY   93  64  38 S7        30.01S HX  94
Evansville     SUNNY     90  68  48 S3        30.00F HX  94
Indianapolis   MOSUNNY   89  67  47 SW7       30.02F HX  92
Lafayette      MOSUNNY   90  69  50 SW5       29.99F HX  94
Madison        CLOUDY    84  68  58 SE8       29.96F HX  87
Milwaukee      CLOUDY    80  70  71 E7        29.98F HX  83
$$






USA.gov is the U.S. government's official web portal to all federal, state and local government web resources and services.